Regional Weather Roundup
Issued by NWS Midland/Odessa, TX

Home | Current Version | Previous Version | Text Only | Print | Product List | Glossary On
Versions: 1 2 3 4 5 6 7 8 9 10 11 12 13 14 15 16 17 18 19 20 21 22 23 24 25 26 27 28 29 30 31 32 33 34 35 36 37 38 39 40 41 42 43 44 45 46 47 48 49 50
000
ASUS44 KMAF 050401
RWRMAF
MIDLAND AREA WEATHER ROUNDUP
NATIONAL WEATHER SERVICE MIDLAND TX
1100 PM CDT MON MAY 04 2015

...IN SOUTHWEST TEXAS AND SOUTHEAST NEW MEXICO...

CITY           SKY/WX    TMP DP  RH WIND       PRES   REMARKS
ALPINE         PTCLDY    65  58  79 SE5       29.95R
ANDREWS        CLOUDY    70  60  69 S15G22    29.91R
ARTESIA        PTCLDY    61  61 100 CALM      29.91R
BIG SPRING     CLOUDY    74  62  65 SE22G33   29.91R
CARLSBAD       LGT RAIN  62  59  90 N3        29.87S
DRYDEN           N/A     72  64  76 E26G36    29.86R
FORT STOCKTON  CLOUDY    67  61  81 SE25G37   29.83S
GUAD PASS      NOT AVBL
HOBBS          CLOUDY    63  63 100 NE14G20   29.92F
MARFA          CLEAR     61  55  82 N6        29.93R
MIDLAND AIRPK  CLOUDY    72  60  67 S20G28    29.89R
MIDLAND INTL   LGT RAIN  69  62  78 S16G32    29.89R
ODESSA         LGT RAIN  69  62  78 S14G23    29.91R
PECOS          PTCLDY    68  60  75 E16       29.84S
PRESIDIO       FAIR      82  31  15 MISG      29.73R
SEMINOLE       LGT RAIN  59  57  93 SE6       29.95R
SNYDER         CLOUDY    67  61  81 SE21      29.91R
WINK           LGT RAIN  67  62  84 SE20G37   29.82F
$$
...OTHER STATIONS IN TEXAS...

CITY           SKY/WX    TMP DP  RH WIND       PRES   REMARKS
ABILENE        CLOUDY    71  60  68 SE20      29.94F
AMARILLO       CLOUDY    59  58  96 E9        30.02R
AUSTIN         CLOUDY    70  61  73 S10       30.03R
BROWNSVILLE    MOCLDY    77  71  82 E13       29.98R
CORPUS CHRISTI MOCLDY    75  68  78 SE20      30.01R
DALLAS FTW     PTCLDY    68  55  63 SE9       30.02R
DEL RIO        LGT RAIN  74  64  71 SE21G26   29.92R
EL PASO        CLOUDY    70  50  49 N8        29.85R
HOUSTON INT    PTCLDY    68  63  84 SE7       30.06S
LUBBOCK        LGT RAIN  59  57  93 NE18      29.94F
SAN ANGELO     CLOUDY    74  60  61 SE23G32   29.93R
SAN ANTONIO    MOCLDY    72  64  76 SE17      30.03R
WACO           CLEAR     69  56  62 SE12      30.03R
WICHITA FALLS  NOT AVBL
$$
...OTHER LOCATIONS IN NEW MEXICO...

CITY           SKY/WX    TMP DP  RH WIND       PRES   REMARKS
ALAMAGORDO     CLOUDY    59  54  82 E5        29.88S
ALBUQUERQUE    CLOUDY    57  47  69 S13G18    29.99R
CANNON AFB     NOT AVBL
CLOVIS         CLOUDY    54  52  94 CALM      30.05S
HOLLOMAN AFB   MOCLDY    63  54  72 E8        29.86R
ROSWELL        MOCLDY    59  57  93 E3        29.90R
RUIDOSO        LGT RAIN  48  46  93 NE8       30.04F
SANTA FE       LGT RAIN  50  46  86 S3        30.04R
TRUTH OR CONSE CLOUDY    61  45  55 N6        29.92R
TUCUMCARI      NOT AVBL
$$



USA.gov is the U.S. government's official web portal to all federal, state and local government web resources and services.